Regional Weather Roundup
Issued by NWS Green Bay, WI

Home | Current Version | Previous Version | Text Only | Print | Product List | Glossary On
Versions: 1 2 3 4 5 6 7 8 9 10 11 12 13 14 15 16 17 18 19 20 21 22 23 24 25 26 27 28 29 30 31 32 33 34 35 36 37 38 39 40 41 42 43 44 45 46 47 48 49 50
243
ASUS43 KGRB 291511
RWRGRB

NORTH-CENTRAL AND NORTHEAST WISCONSIN REGIONAL WEATHER ROUNDUP
NATIONAL WEATHER SERVICE GREEN BAY WI
1000 AM CDT FRI APR 29 2016

WIZ005-009-010>012-018-019-291600-
NORTH CENTRAL WISCONSIN

CITY           SKY/WX    TMP DP  RH WIND       PRES   REMARKS
IRONWOOD         N/A     45  27  49 CALM      30.15S
MANITOWISH WTR SUNNY     46  33  61 CALM      30.14F
ARBOR VITAE    PTSUNNY   45  35  67 NE3       30.14F
EAGLE RIVER    SUNNY     45  32  60 NE7       30.14S
LAND O LAKES   CLOUDY    45  33  64 W3        30.16R
RHINELANDER    CLOUDY    45  35  68 VRB5      30.14S
PHILLIPS       PTSUNNY   45  35  67 E5        30.15R
ANTIGO         CLOUDY    44  36  72 NE7       30.13F
TOMAHAWK       CLOUDY    44  34  68 NE5       30.15S
MERRILL        CLOUDY    44  38  79 NE6       30.15S
$$

WIZ013-073-291600-
NORTHEAST WISCONSIN

CITY           SKY/WX    TMP DP  RH WIND       PRES   REMARKS
IRON MOUNTAIN  CLOUDY    45  29  53 NE6       30.15R
MARINETTE      CLOUDY    45  30  57 E8        30.14F
OCONTO         CLOUDY    45  34  66 E6        30.14S
$$

WIZ017-030-035>037-045-291600-
CENTRAL WISCONSIN

CITY           SKY/WX    TMP DP  RH WIND       PRES   REMARKS
MEDFORD        CLOUDY    42  39  89 N7        30.14S
WAUSAU         CLOUDY    47  36  65 VRB3      30.13R
MOSINEE        CLOUDY    43  37  81 N7        30.15R
MARSHFIELD     CLOUDY    46  37  71 NE8       30.15R
WISC RAPIDS    CLOUDY    46  34  62 VRB5      30.17R
STEVENS POINT  CLOUDY    43  33  67 NE7       30.15R
WAUPACA        PTSUNNY   48  36  61 N8        30.13R
SHAWANO        PTSUNNY   48  35  59 NE8       30.14S
CLINTONVILLE   CLOUDY    46  32  57 N14       30.12F
WAUTOMA        NOT AVBL
$$

WIZ038-039-048-051-291600-
FOX VALLEY

CITY           SKY/WX    TMP DP  RH WIND       PRES   REMARKS
NWS GREEN BAY  MOSUNNY   47  35  63 NE13      30.12F
APPLETON       PTSUNNY   45  32  61 NE9       30.10F
OSHKOSH        CLOUDY    46  34  62 NE10      30.11S
FOND DU LAC    CLOUDY    45  36  70 N6        30.12R
$$

WIZ022-050-052-291600-
EAST CENTRAL WISCONSIN

CITY           SKY/WX    TMP DP  RH WIND       PRES   REMARKS
EPHRAIM        CLOUDY    42  34  74 N7        30.14S
STURGEON BAY   CLOUDY    45  28  53 NE7       30.16S
MANITOWOC      CLOUDY    46  36  68 NE8G25    30.12F
SHEBOYGAN      PTSUNNY   45  37  73 NE10      30.10F
$$

LMZ563-521-522-541>543-291600-
LAKESHORE

STATION/POSITION TIME  TEMP    WIND        PRES    VSBY  WAVE
                       AIR SEA DIR/SP/G                  HT/PER
                 (UTC) (F)     (DEG/KT/KT) (MB)    (MI)  (FT/S)
SHEBOYGAN LKSHOR 1500   40      20/ 11/ 11 1020.3F
KEWAUNEE LKSHORE 1400   42      30/  8/  9 1019.6R
ALGOMA MARINA    1400           50/  9/ 11   N/A
NORTHPORT PIER   1400   39     320/  7/  7 1021.3R
N MID LAKE BUOY  1450   39 39  350/ 10/ 12 1021.0R         0
CHAMBERS ISLAND  1440   40      10/  9/ 11 1021.3S
MENOMINEE LKSHOR 1400   41      40/ 12/ 13 1019.7F
$$




USA.gov is the U.S. government's official web portal to all federal, state and local government web resources and services.